Location: College Park
(38.9810°N, 76.9370°W)
Time: 18:19:18
(UTC-05:00)

Vanguard 2 Rocket - All Passes

Search period start: 21 November 2017 00:00
Search period end: 01 December 2017 00:00
Orbit: 556 x 3326 km, 32.9° (Epoch: 21 November)

Date Brightness Start Highest point End Pass type
(mag) Time Alt. Az. Time Alt. Az. Time Alt. Az.
21 Nov - 00:55:35 10° SW 01:13:00 45° SSE 01:24:35 10° E visible
21 Nov - 03:12:59 10° WSW 03:28:50 63° S 03:37:50 10° E visible
21 Nov - 05:31:45 10° W 05:43:14 54° SSW 05:49:43 10° ESE visible
21 Nov - 07:50:15 10° W 07:55:32 20° SW 07:59:25 10° S daylight
21 Nov - 21:45:51 10° SSE 21:55:47 16° SE 22:04:55 10° ESE visible
21 Nov - 23:54:39 10° SSW 00:11:57 39° SSE 00:24:40 10° E visible
22 Nov - 02:10:47 10° WSW 02:28:16 60° SSE 02:38:46 10° E visible
22 Nov - 04:29:36 10° W 04:43:30 62° S 04:51:12 10° ESE visible
22 Nov - 06:48:18 10° W 06:56:42 32° SSW 07:02:01 10° SSE daylight
22 Nov - 22:54:30 10° SSW 23:10:48 32° SSE 23:24:05 10° E visible
23 Nov - 01:08:52 10° SW 01:27:20 55° SSE 01:39:23 10° E visible
23 Nov - 03:27:13 10° WSW 03:43:19 66° S 03:52:26 10° ESE visible
23 Nov - 05:46:18 10° W 05:57:31 46° SSW 06:04:00 10° SE visible
23 Nov - 08:06:37 10° WSW 08:09:17 12° SW 08:11:35 10° SSW daylight
23 Nov - 21:55:23 10° S 22:09:41 25° SE 22:22:31 10° E visible
24 Nov - 00:07:28 10° SW 00:26:09 49° SSE 00:39:39 10° E visible
24 Nov - 02:24:49 10° WSW 02:42:43 66° S 02:53:24 10° E visible
24 Nov - 04:44:03 10° W 04:57:53 57° SSW 05:05:38 10° ESE visible
24 Nov - 07:03:22 10° W 07:10:35 23° SW 07:15:32 10° S daylight
24 Nov - 20:57:53 10° S 21:08:45 17° SE 21:19:16 10° ESE visible
24 Nov - 23:06:44 10° SSW 23:24:50 42° SSE 23:39:23 10° E visible
25 Nov - 01:22:37 10° WSW 01:41:43 63° SSE 01:54:04 10° E visible
25 Nov - 03:41:36 10° W 03:57:46 65° S 04:06:57 10° ESE visible
25 Nov - 06:00:59 10° W 06:11:34 36° SSW 06:18:00 10° SSE visible
25 Nov - 20:06:43 10° SE 20:08:02 10° SE 20:09:22 10° SE visible
25 Nov - 22:06:51 10° SSW 22:23:32 34° SE 22:38:27 10° E visible
26 Nov - 00:20:52 10° SW 00:40:25 58° SSE 00:54:24 10° E visible
26 Nov - 02:39:04 10° W 02:57:11 69° S 03:07:58 10° ESE visible
26 Nov - 04:58:34 10° W 05:12:06 49° SSW 05:19:54 10° SE visible
26 Nov - 07:19:15 10° WSW 07:24:13 15° SW 07:28:06 10° SSW daylight
26 Nov - 21:07:59 10° S 21:22:25 26° SE 21:36:29 10° E visible
26 Nov - 23:19:44 10° SW 23:38:54 52° SSE 23:54:17 10° E visible
27 Nov - 01:36:42 10° WSW 01:56:08 69° S 02:08:40 10° E visible
27 Nov - 03:56:02 10° W 04:12:07 60° SSW 04:21:22 10° ESE visible
27 Nov - 06:15:57 10° W 06:25:21 27° SW 06:31:32 10° SSE visible
27 Nov - 20:10:41 10° S 20:21:35 18° SE 20:32:52 10° E visible
27 Nov - 22:19:19 10° SSW 22:37:24 44° SSE 22:53:37 10° E visible
28 Nov - 00:34:42 10° WSW 00:54:43 66° SSE 01:09:02 10° E visible
28 Nov - 02:53:27 10° W 03:11:36 67° S 03:22:28 10° ESE visible
28 Nov - 05:13:13 10° W 05:26:05 40° SSW 05:33:50 10° SSE visible
28 Nov - 19:18:51 10° SE 19:21:06 10° SE 19:23:24 10° ESE visible
28 Nov - 21:19:46 10° SSW 21:36:03 36° SE 21:52:15 10° E visible
28 Nov - 23:33:16 10° SW 23:53:03 61° SSE 00:08:59 10° E visible
29 Nov - 01:50:59 10° W 02:10:34 70° S 02:23:13 10° ESE visible
29 Nov - 04:10:32 10° W 04:26:16 52° SSW 04:35:34 10° SE visible
29 Nov - 06:31:37 10° W 06:38:54 18° SW 06:44:15 10° S visible
29 Nov - 20:21:12 10° S 20:35:03 27° SE 20:49:51 10° E visible
29 Nov - 22:32:29 10° SW 22:51:20 54° SSE 23:08:27 10° E visible
30 Nov - 00:48:50 10° WSW 01:09:05 70° S 01:23:36 10° E visible
30 Nov - 03:07:54 10° W 03:25:54 62° SSW 03:36:50 10° ESE visible
30 Nov - 05:28:08 10° W 05:39:47 30° SW 05:47:20 10° SSE visible
30 Nov - 19:24:11 10° SSE 19:34:27 18° SE 19:45:46 10° E visible
30 Nov - 21:32:27 10° SSW 21:49:46 45° SSE 22:07:21 10° E visible
